MISCOU ISLAND(AUT) N current weather conditions

sailwx.info

Wind from 170 at 6 knots

Air temperature -7.0° C
Dewpoint -8.0° C

Last reported at 2020-Jan-25 22:00 UTC.
Time now 2020-Jan-25 22:46 UTC

Location: N 48°01' W 064°30'.
View on Google Maps.

See reports from other nearby stations

  
Tides and Currents Weather Stations Pressure Air Temp Water Temp Dewpoint Dewpoint Depression Visibility Wind Speed Wind Dir Waves Ship Positions
date/time (UTC)wind fromknots sea level pressurealtimeterstation pressurevisibilityair tempwater tempwave heightnotes
2020-Jan-25 22:00 170 6 -7.0
2020-Jan-25 21:00 170 6 -6.0
2020-Jan-25 20:00 170 6 -4.0
2020-Jan-25 19:00 180 6 -3.0
2020-Jan-25 18:00 180 7 -4.0
2020-Jan-25 17:00 200 4 -4.0
2020-Jan-25 16:00 180 4 -5.0
2020-Jan-25 15:00 170 2 -7.0
2020-Jan-25 14:00 180 2 -7.0
2020-Jan-25 13:00 190 4 -12.0
2020-Jan-25 12:00 250 1 -13.0
2020-Jan-25 11:00 240 1 -12.0
2020-Jan-25 10:00 240 5 -13.0
2020-Jan-25 09:00 240 4 -13.0
2020-Jan-25 08:00 250 4 -12.0
2020-Jan-25 07:00 240 6 -12.0
2020-Jan-25 06:00 210 6 -13.0
2020-Jan-25 05:00 190 4 -12.0
2020-Jan-25 04:00 170 5 -11.0
2020-Jan-25 03:00 130 4 -8.0
2020-Jan-25 02:00 160 5 -8.0
2020-Jan-25 01:00 160 5 -7.0
2020-Jan-25 00:00 130 5 -6.0
2020-Jan-24 23:00 120 5 -6.0
2020-Jan-24 22:00 100 6 -6.0
2020-Jan-24 21:00 090 6 -6.0
2020-Jan-24 20:00 140 4 -4.0
2020-Jan-24 19:00 150 2 -3.0
2020-Jan-24 18:00 020 1 -3.0
2020-Jan-24 17:00 340 4 -4.0
2020-Jan-24 16:00 340 8 -4.0
2020-Jan-24 15:00 330 9 -5.0
2020-Jan-24 14:00 340 9 -5.0
2020-Jan-24 13:00 340 12 -5.0
2020-Jan-24 12:00 340 13 -4.0
2020-Jan-24 11:00 350 12 -4.0
2020-Jan-24 10:00 290 8 -3.0
2020-Jan-24 09:00 280 8 -2.0
2020-Jan-24 08:00 280 9 -2.0
2020-Jan-24 07:00 270 7 -2.0
2020-Jan-24 06:00 270 8 -2.0
2020-Jan-24 05:00 260 11 -1.0
2020-Jan-24 04:00 260 12 -1.0
2020-Jan-24 03:00 250 13 -1.0
2020-Jan-24 02:00 250 13 -0.0
2020-Jan-24 01:00 240 13 gusting 19 -0.0
2020-Jan-24 00:00 230 9 -1.0
2020-Jan-23 23:00 230 7 -2.0
2020-Jan-23 22:00 240 8 -2.0